GW3919 Weather Reports


Display with metric or nautical units.
time (UTC)temp
F
wind
direction
speed
MPH
gust
MPH
rain 1hr
in
rain 24hr
in
rain mn
in
humidity
%
barometer
mb
20240229124632 42 116 3.0 6.0 0.00 0.00 0.00 63 1028.0
20240229124131 42 107 2.0 5.0 0.02 0.00 0.00 64 1028.1
20240229123631 42 116 4.0 5.0 0.02 0.00 0.00 62 1028.3
20240229123129 42 129 1.0 4.0 0.00 0.00 0.00 63 1028.3
20240229122628 42 133 3.0 5.0 0.00 0.00 0.00 63 1028.0
20240229122127 42 104 3.0 7.0 0.00 0.00 0.00 63 1028.0
20240229121626 42 122 2.0 4.0 0.00 0.00 0.00 63 1027.9
20240229121125 42 71 2.0 5.0 0.00 0.00 0.00 62 1028.0
20240229120624 42 95 3.0 5.0 0.00 0.00 0.00 60 1028.1
20240229120123 42 95 3.0 5.0 0.00 0.00 0.00 61 1028.0
20240229115622 42 102 2.0 5.0 0.00 0.00 0.00 56 1028.3
20240229115120 42 108 4.0 4.0 0.00 0.00 0.00 57 1028.5
20240229114617 42 105 3.0 6.0 0.00 0.00 0.00 55 1028.5
20240229114117 42 114 2.0 5.0 0.00 0.00 0.00 54 1028.5
20240229113615 42 37 2.0 4.0 0.00 0.00 0.00 54 1028.4
20240229113114 42 23 3.0 5.0 0.00 0.00 0.00 51 1028.3
20240229112612 42 61 2.0 8.0 0.00 0.00 0.00 53 1028.1
20240229112111 42 117 1.0 4.0 0.00 0.00 0.00 53 1028.1
20240229111609 42 102 0.0 2.0 0.00 0.00 0.00 50 1028.3
20240229111107 42 117 2.0 4.0 0.00 0.00 0.00 49 1028.3
20240229110553 42 89 0.0 5.0 0.00 0.00 0.00 48 1028.1
20240229110051 42 145 0.0 3.0 0.00 0.00 0.00 50 1028.1
20240229105548 42 280 1.0 3.0 0.00 0.00 0.00 48 1028.7
20240229105046 42 138 3.0 3.0 0.00 0.00 0.00 49 1028.3
20240229104545 42 100 0.0 4.0 0.00 0.00 0.00 50 1028.5
20240229104043 42 155 2.0 3.0 0.00 0.00 0.00 48 1028.3
20240229103543 42 339 2.0 7.0 0.00 0.00 0.00 47 1028.6
20240229103041 42 43 1.0 4.0 0.00 0.00 0.00 48 1028.8
20240229102539 42 162 2.0 4.0 0.00 0.00 0.00 47 1028.8
20240229102038 42 109 1.0 4.0 0.00 0.00 0.00 48 1028.3
20240229101536 42 30 0.0 5.0 0.00 0.00 0.00 49 1028.4
20240229101035 42 321 1.0 4.0 0.00 0.00 0.00 48 1028.4
20240229100534 42 131 0.0 5.0 0.00 0.00 0.00 50 1028.2
20240229100033 42 87 1.0 2.0 0.00 0.00 0.00 49 1028.3
20240229095533 42 53 1.0 4.0 0.00 0.00 0.00 49 1028.4
20240229095032 42 359 2.0 3.0 0.00 0.00 0.00 49 1028.3
20240229094529 42 178 1.0 2.0 0.00 0.00 0.00 49 1028.2
20240229094027 42 10 2.0 4.0 0.00 0.00 0.00 48 1028.1
20240229093525 42 81 1.0 3.0 0.00 0.00 0.00 49 1028.2
20240229093025 42 234 1.0 3.0 0.00 0.00 0.00 48 1028.6
20240229092522 42 165 1.0 5.0 0.00 0.00 0.00 49 1028.7
20240229092021 42 284 0.0 4.0 0.00 0.00 0.00 48 1029.0
20240229091518 42 123 0.0 2.0 0.00 0.00 0.00 49 1028.7
20240229091018 42 70 2.0 3.0 0.00 0.00 0.00 48 1028.6
20240229090516 42 154 2.0 3.0 0.00 0.00 0.00 49 1028.4
20240229090015 42 125 0.0 4.0 0.00 0.00 0.00 49 1028.2
20240229085513 42 25 1.0 2.0 0.00 0.00 0.00 48 1028.3
20240229085013 42 146 2.0 3.0 0.00 0.00 0.00 49 1028.6
20240229084511 43 180 0.0 4.0 0.00 0.00 0.00 48 1028.4
20240229084010 43 149 2.0 3.0 0.00 0.00 0.00 50 1028.4
20240229083509 43 121 2.0 3.0 0.00 0.00 0.00 48 1028.7
20240229083008 43 89 0.0 2.0 0.00 0.00 0.00 47 1028.8
20240229082505 43 10 3.0 4.0 0.00 0.00 0.00 45 1028.8
20240229082003 43 228 0.0 4.0 0.00 0.00 0.00 46 1028.8
20240229081501 43 27 2.0 3.0 0.00 0.00 0.00 46 1028.9
20240229081001 43 151 3.0 3.0 0.00 0.00 0.00 47 1028.6
20240229080500 43 322 0.0 3.0 0.00 0.00 0.00 46 1028.6
20240229075959 42 19 2.0 2.0 0.00 0.00 0.00 45 1028.9
20240229075458 43 204 1.0 3.0 0.00 0.00 0.00 46 1028.8
20240229074956 43 165 0.0 2.0 0.00 0.00 0.00 45 1029.0
20240229074455 43 12 1.0 2.0 0.00 0.00 0.00 45 1028.8
20240229073955 43 113 0.0 2.0 0.00 0.00 0.00 45 1028.8
20240229073454 43 119 0.0 4.0 0.00 0.00 0.00 45 1028.3
20240229072954 43 111 2.0 4.0 0.00 0.00 0.00 46 1028.3
20240229072453 43 110 3.0 4.0 0.00 0.00 0.00 44 1028.3
20240229071952 43 102 3.0 4.0 0.00 0.00 0.00 45 1028.2
20240229071450 43 99 3.0 3.0 0.00 0.00 0.00 51 1028.4
20240229070949 43 355 2.0 5.0 0.00 0.00 0.00 46 1028.5
20240229070447 43 345 2.0 4.0 0.00 0.00 0.00 45 1028.8
20240229065947 43 56 1.0 2.0 0.00 0.00 0.00 45 1028.7
20240229065446 43 144 2.0 3.0 0.00 0.00 0.00 52 1028.7
20240229064945 43 11 2.0 2.0 0.00 0.00 0.00 44 1028.7
20240229064444 43 168 2.0 3.0 0.00 0.00 0.00 42 1028.8
20240229063942 43 118 2.0 3.0 0.00 0.00 0.00 42 1028.7
20240229063441 43 119 0.0 2.0 0.00 0.00 0.00 42 1028.7
20240229062940 43 68 0.0 2.0 0.00 0.00 0.00 42 1028.6
20240229062438 43 139 1.0 2.0 0.00 0.00 0.00 41 1028.6
20240229061938 43 156 0.0 3.0 0.00 0.00 0.00 42 1028.9
20240229061437 43 126 0.0 2.0 0.00 0.00 0.00 41 1028.6
20240229060936 43 112 0.0 4.0 0.00 0.00 0.00 40 1028.7
20240229060436 43 144 2.0 2.0 0.00 0.00 0.00 40 1028.9
20240229055934 43 169 0.0 2.0 0.00 0.00 0.00 40 1029.1
20240229055434 43 77 0.0 3.0 0.00 0.00 0.00 40 1029.0
20240229054933 43 130 0.0 2.0 0.00 0.00 0.00 41 1029.1
20240229054431 43 80 0.0 2.0 0.00 0.00 0.00 40 1029.3
20240229053931 43 137 2.0 2.0 0.00 0.00 0.00 40 1029.1
20240229053431 43 33 0.0 2.0 0.00 0.00 0.00 39 1029.2
20240229052929 43 133 0.0 2.0 0.00 0.00 0.00 43 1029.1
20240229052428 43 148 0.0 2.0 0.00 0.00 0.00 41 1029.2
20240229051927 43 7 0.0 2.0 0.00 0.00 0.00 39 1029.2
20240229051425 43 86 0.0 2.0 0.00 0.00 0.00 39 1029.1
20240229050924 43 329 1.0 2.0 0.00 0.00 0.00 39 1029.1
20240229050423 43 149 1.0 2.0 0.00 0.00 0.00 39 1029.1
20240229045922 43 148 1.0 2.0 0.00 0.00 0.00 40 1029.0
20240229045420 43 110 0.0 2.0 0.00 0.00 0.00 41 1029.0
20240229044919 43 103 0.0 2.0 0.00 0.00 0.00 39 1029.2
20240229044418 43 124 0.0 2.0 0.00 0.00 0.00 40 1028.9
20240229043917 43 124 0.0 2.0 0.00 0.00 0.00 41 1029.1
20240229043416 43 130 0.0 2.0 0.00 0.00 0.00 38 1028.9
20240229042914 43 72 0.0 2.0 0.00 0.00 0.00 38 1029.2
20240229042412 44 224 0.0 3.0 0.00 0.00 0.00 39 1029.3
20240229041911 44 147 0.0 2.0 0.00 0.00 0.00 38 1029.0
20240229041409 43 5 2.0 2.0 0.00 0.00 0.00 37 1029.2
20240229040908 43 157 0.0 2.0 0.00 0.00 0.00 39 1029.0
20240229040407 43 44 0.0 3.0 0.00 0.00 0.00 37 1028.3
20240229035906 43 109 1.0 4.0 0.00 0.00 0.00 37 1028.4
20240229035405 43 123 0.0 3.0 0.00 0.00 0.00 38 1028.1
20240229034904 43 103 0.0 3.0 0.00 0.00 0.00 39 1027.7
20240229034404 44 244 1.0 2.0 0.00 0.00 0.00 38 1028.0
20240229033903 43 128 2.0 4.0 0.00 0.00 0.00 39 1028.0
20240229033401 43 218 2.0 2.0 0.00 0.00 0.00 38 1028.1
20240229032859 43 149 3.0 4.0 0.00 0.00 0.00 38 1028.0
20240229032358 43 145 2.0 4.0 0.00 0.00 0.00 38 1028.4
20240229031858 43 23 2.0 3.0 0.00 0.00 0.00 38 1028.4
20240229031357 43 121 0.0 4.0 0.00 0.00 0.00 37 1028.5
20240229030856 43 32 2.0 3.0 0.00 0.00 0.00 37 1028.6
20240229030356 43 0 0.0 3.0 0.00 0.00 0.00 37 1028.5
20240229025856 43 49 0.0 2.0 0.00 0.00 0.00 37 1028.2
20240229025354 43 165 2.0 4.0 0.00 0.00 0.00 38 1028.4
20240229024853 44 132 0.0 3.0 0.00 0.00 0.00 38 1028.6
20240229024351 43 135 1.0 2.0 0.00 0.00 0.00 38 1028.6
20240229023850 44 180 2.0 4.0 0.00 0.00 0.00 36 1028.8
20240229023350 43 146 1.0 4.0 0.00 0.00 0.00 37 1028.8
20240229022849 43 83 2.0 3.0 0.00 0.00 0.00 37 1028.7
20240229022349 43 40 0.0 2.0 0.00 0.00 0.00 37 1028.8
20240229021847 44 119 0.0 4.0 0.00 0.00 0.00 36 1028.8
20240229021346 44 284 0.0 2.0 0.00 0.00 0.00 38 1028.9
20240229020846 44 114 2.0 3.0 0.00 0.00 0.00 37 1029.2
20240229020345 44 125 2.0 3.0 0.00 0.00 0.00 38 1029.0
20240229015844 44 126 0.0 3.0 0.00 0.00 0.00 38 1029.2
20240229015343 44 76 1.0 2.0 0.00 0.00 0.00 37 1029.4
20240229014843 44 123 2.0 4.0 0.00 0.00 0.00 37 1029.2
20240229014342 44 52 2.0 2.0 0.00 0.00 0.00 36 1029.6
20240229013840 44 89 0.0 3.0 0.00 0.00 0.00 36 1029.4
20240229013338 44 322 3.0 4.0 0.00 0.00 0.00 36 1029.3
20240229012837 44 106 2.0 2.0 0.00 0.00 0.00 36 1029.0
20240229012335 44 119 1.0 3.0 0.00 0.00 0.00 36 1028.9
20240229011835 44 14 0.0 6.0 0.00 0.00 0.00 36 1028.8
20240229011334 44 356 2.0 3.0 0.00 0.00 0.00 35 1028.9
20240229010833 44 20 1.0 4.0 0.00 0.00 0.00 36 1028.9
20240229010333 44 180 2.0 5.0 0.00 0.00 0.00 37 1028.5
20240229005833 44 144 0.0 4.0 0.00 0.00 0.00 37 1028.6
20240229005333 44 112 2.0 3.0 0.00 0.00 0.00 37 1028.2
20240229004832 44 201 0.0 3.0 0.00 0.00 0.00 36 1028.3
20240229004331 44 336 5.0 5.0 0.00 0.00 0.00 34 1028.2
20240229003829 44 340 1.0 6.0 0.00 0.00 0.00 34 1028.3
20240229003327 44 49 3.0 6.0 0.00 0.00 0.00 34 1028.4
20240229002825 44 92 1.0 5.0 0.00 0.00 0.00 36 1028.3
20240229002325 44 122 3.0 5.0 0.00 0.00 0.00 36 1028.6
20240229001825 44 79 1.0 5.0 0.00 0.00 0.00 35 1028.6
20240229001323 45 330 2.0 4.0 0.00 0.00 0.00 33 1028.5
20240229000822 45 312 2.0 4.0 0.00 0.00 0.00 33 1028.4
20240229000321 45 307 3.0 6.0 0.00 0.00 0.00 32 1028.5
20240228235820 45 161 2.0 6.0 0.00 0.00 0.00 34 1028.4
20240228235318 45 132 2.0 5.0 0.00 0.00 0.00 34 1028.2
20240228234816 46 228 4.0 4.0 0.00 0.00 0.00 34 1028.1
20240228234315 46 358 0.0 2.0 0.00 0.00 0.00 34 1027.8
20240228233814 46 3 3.0 6.0 0.00 0.00 0.00 34 1027.6
20240228233314 46 3 3.0 4.0 0.00 0.00 0.00 33 1027.6
20240228232814 46 169 2.0 4.0 0.00 0.00 0.00 34 1027.5
20240228232312 46 218 3.0 4.0 0.00 0.00 0.00 32 1027.5
20240228231812 46 163 0.0 4.0 0.00 0.00 0.00 33 1027.5
20240228231310 46 137 2.0 6.0 0.00 0.00 0.00 30 1027.5
20240228230808 46 158 3.0 7.0 0.00 0.00 0.00 29 1027.5
20240228230306 47 231 2.0 4.0 0.00 0.00 0.00 32 1027.6
20240228225805 47 146 2.0 9.0 0.00 0.00 0.00 33 1027.6
20240228225306 47 18 1.0 6.0 0.00 0.00 0.00 30 1027.5
20240228224803 47 153 2.0 6.0 0.00 0.00 0.00 31 1027.5
20240228224303 47 122 6.0 6.0 0.00 0.00 0.00 33 1027.4
20240228223802 47 54 4.0 6.0 0.00 0.00 0.00 31 1027.5
20240228223301 47 155 4.0 8.0 0.00 0.00 0.00 32 1027.5
20240228222800 48 74 2.0 4.0 0.00 0.00 0.00 31 1027.4
20240228222300 48 133 1.0 9.0 0.00 0.00 0.00 31 1027.5
20240228221758 48 243 1.0 7.0 0.00 0.00 0.00 31 1027.3
20240228221257 48 336 2.0 6.0 0.00 0.00 0.00 31 1027.5
20240228220756 48 109 5.0 11.0 0.00 0.00 0.00 30 1027.6
20240228220254 48 196 3.0 5.0 0.00 0.00 0.00 33 1027.3
20240228215754 48 180 3.0 8.0 0.00 0.00 0.00 31 1027.7
20240228215253 48 123 2.0 7.0 0.00 0.00 0.00 32 1027.6
20240228214752 47 129 2.0 11.0 0.00 0.00 0.00 33 1027.3
20240228214251 47 80 2.0 9.0 0.00 0.00 0.00 31 1027.4
20240228213749 47 319 3.0 6.0 0.00 0.00 0.00 30 1027.3
20240228213249 47 145 2.0 6.0 0.00 0.00 0.00 32 1027.2
20240228212748 48 11 2.0 4.0 0.00 0.00 0.00 31 1027.3
20240228212247 47 234 2.0 6.0 0.00 0.00 0.00 32 1027.0
20240228211746 47 118 4.0 11.0 0.00 0.00 0.00 32 1027.0
20240228211244 48 106 1.0 6.0 0.00 0.00 0.00 41 1027.1
20240228210742 48 193 2.0 6.0 0.00 0.00 0.00 33 1027.0
20240228210241 48 113 3.0 10.0 0.00 0.00 0.00 35 1027.2
20240228205740 48 165 2.0 5.0 0.00 0.00 0.00 36 1027.2
20240228205238 48 346 2.0 7.0 0.00 0.00 0.00 37 1027.0
20240228204736 47 140 3.0 5.0 0.00 0.00 0.00 33 1027.2
20240228204235 48 340 4.0 7.0 0.00 0.00 0.00 32 1026.9
20240228203736 48 350 7.0 12.0 0.00 0.00 0.00 31 1027.1
20240228203235 48 355 3.0 10.0 0.00 0.00 0.00 32 1026.7
20240228202734 48 74 2.0 14.0 0.00 0.00 0.00 34 1026.9
20240228202234 48 321 1.0 6.0 0.00 0.00 0.00 33 1027.1
20240228201733 48 325 3.0 6.0 0.00 0.00 0.00 32 1027.1
20240228201232 48 298 2.0 12.0 0.00 0.00 0.00 33 1027.5
20240228200731 48 341 3.0 9.0 0.00 0.00 0.00 33 1027.0
20240228200230 48 350 6.0 7.0 0.00 0.00 0.00 32 1027.0
20240228195729 48 271 2.0 3.0 0.00 0.00 0.00 32 1027.2
20240228195228 48 77 3.0 3.0 0.00 0.00 0.00 33 1027.2
20240228194727 47 344 6.0 7.0 0.00 0.00 0.00 33 1027.4
20240228194226 47 331 3.0 6.0 0.00 0.00 0.00 34 1027.3
20240228193725 48 48 2.0 8.0 0.00 0.00 0.00 34 1027.6
20240228193224 47 218 3.0 6.0 0.00 0.00 0.00 34 1027.4
20240228192722 46 244 4.0 13.0 0.00 0.00 0.00 34 1027.6
20240228192220 47 174 1.0 4.0 0.00 0.00 0.00 36 1027.5
20240228191719 46 4 6.0 6.0 0.00 0.00 0.00 35 1027.5
20240228191219 46 201 2.0 8.0 0.00 0.00 0.00 38 1027.6
20240228190717 45 198 3.0 8.0 0.00 0.00 0.00 37 1027.4
20240228190216 45 321 4.0 12.0 0.00 0.00 0.00 38 1027.6
20240228185715 45 4 3.0 7.0 0.00 0.00 0.00 38 1027.9
20240228185213 45 93 4.0 5.0 0.00 0.00 0.00 41 1028.1
20240228184712 45 18 2.0 6.0 0.00 0.00 0.00 39 1028.0
20240228184211 44 122 4.0 8.0 0.00 0.00 0.00 39 1028.1
20240228183709 44 222 2.0 10.0 0.00 0.00 0.00 40 1028.2
20240228183207 44 104 0.0 6.0 0.00 0.00 0.00 41 1028.1
20240228182706 44 295 3.0 8.0 0.00 0.00 0.00 40 1028.2
20240228182204 44 348 4.0 9.0 0.00 0.00 0.00 40 1028.3
20240228181703 44 248 3.0 4.0 0.00 0.00 0.00 43 1028.4
20240228181202 44 124 3.0 5.0 0.00 0.00 0.00 43 1028.1
20240228180700 44 21 4.0 11.0 0.00 0.00 0.00 42 1027.9
20240228180158 44 281 5.0 5.0 0.00 0.00 0.00 42 1028.2
20240228175657 44 26 3.0 7.0 0.00 0.00 0.00 43 1028.1
20240228175155 43 141 3.0 14.0 0.00 0.00 0.00 44 1028.1
20240228174653 43 345 5.0 12.0 0.00 0.00 0.00 46 1028.0
20240228174153 44 325 12.0 14.0 0.00 0.00 0.00 44 1027.9
20240228173651 44 358 6.0 8.0 0.00 0.00 0.00 43 1028.0
20240228173149 44 13 6.0 9.0 0.00 0.00 0.00 45 1027.7
20240228172646 44 340 10.0 13.0 0.00 0.00 0.00 45 1027.9
20240228172146 44 280 6.0 9.0 0.00 0.00 0.00 47 1027.5
20240228171646 43 305 8.0 12.0 0.00 0.00 0.00 48 1027.6
20240228171145 44 15 2.0 6.0 0.00 0.00 0.00 51 1027.8
20240228170644 42 39 4.0 10.0 0.00 0.00 0.00 48 1027.5
20240228170142 43 333 6.0 6.0 0.00 0.00 0.00 46 1027.3
20240228165640 42 342 9.0 18.0 0.00 0.00 0.00 47 1027.1
20240228165140 42 345 3.0 16.0 0.00 0.00 0.00 47 1026.8
20240228164639 42 181 1.0 12.0 0.00 0.00 0.00 47 1026.8
20240228164138 43 22 8.0 20.0 0.00 0.00 0.00 46 1026.8
20240228163638 43 351 4.0 13.0 0.00 0.00 0.00 47 1026.5
20240228163137 44 29 4.0 9.0 0.00 0.00 0.00 47 1026.6
20240228162637 44 34 5.0 6.0 0.00 0.00 0.00 47 1026.6
20240228162137 43 151 5.0 15.0 0.00 0.00 0.00 48 1026.7
20240228161636 43 346 4.0 14.0 0.00 0.00 0.00 48 1026.6
20240228161134 42 306 3.0 10.0 0.00 0.00 0.00 49 1026.6
20240228160634 43 283 8.0 14.0 0.00 0.00 0.00 50 1026.2
20240228160133 42 353 4.0 7.0 0.00 0.00 0.00 50 1026.2
20240228155632 43 255 3.0 11.0 0.00 0.00 0.00 50 1026.0
20240228155130 42 10 3.0 13.0 0.00 0.00 0.00 52 1026.0
20240228154629 42 66 4.0 9.0 0.00 0.00 0.00 51 1026.3
20240228154129 43 279 6.0 20.0 0.00 0.00 0.00 50 1026.3
20240228153629 42 327 2.0 18.0 0.00 0.00 0.00 51 1026.2
20240228153127 42 300 2.0 8.0 0.00 0.00 0.00 52 1025.9
20240228152626 41 355 4.0 23.0 0.00 0.00 0.00 53 1025.9
20240228152126 41 287 4.0 16.0 0.00 0.00 0.00 52 1025.4
20240228151624 42 163 2.0 9.0 0.00 0.00 0.00 52 1025.3
20240228151123 42 15 3.0 13.0 0.00 0.00 0.00 52 1024.7
20240228150623 41 27 9.0 14.0 0.00 0.00 0.00 52 1024.4
20240228150123 41 9 10.0 16.0 0.00 0.00 0.00 52 1024.2
20240228145622 41 31 3.0 10.0 0.00 0.00 0.00 53 1023.8
20240228145120 41 210 6.0 12.0 0.00 0.00 0.00 53 1023.9
20240228144621 41 341 2.0 23.0 0.00 0.00 0.00 53 1023.7
20240228144120 41 109 4.0 10.0 0.00 0.00 0.00 52 1023.8
20240228143618 41 171 3.0 14.0 0.00 0.00 0.00 53 1023.6
20240228143117 41 333 10.0 22.0 0.00 0.00 0.00 53 1023.6
20240228142616 41 324 11.0 17.0 0.00 0.00 0.00 52 1023.3
20240228142115 42 333 3.0 17.0 0.00 0.00 0.00 53 1023.0
20240228141615 42 249 4.0 21.0 0.00 0.00 0.00 52 1023.1
20240228141113 42 315 9.0 15.0 0.00 0.00 0.00 52 1022.7
20240228140612 42 212 4.0 10.0 0.00 0.00 0.00 52 1022.5
20240228140110 42 340 5.0 21.0 0.00 0.00 0.00 52 1022.5
20240228135609 42 337 4.0 15.0 0.00 0.00 0.00 52 1022.3
20240228135107 42 302 2.0 17.0 0.00 0.00 0.00 52 1022.0
20240228134607 43 349 8.0 17.0 0.00 0.00 0.00 51 1021.5
20240228134105 43 358 6.0 13.0 0.00 0.00 0.00 52 1021.3
20240228133603 43 289 5.0 19.0 0.00 0.00 0.00 52 1021.0
20240228133103 43 313 15.0 19.0 0.00 0.00 0.00 52 1020.9
20240228132601 43 109 7.0 12.0 0.00 0.00 0.00 52 1020.6
20240228132101 44 0 2.0 5.0 0.00 0.00 0.00 52 1020.6
20240228131600 44 308 9.0 21.0 0.00 0.00 0.00 51 1020.4
20240228131058 44 149 2.0 7.0 0.00 0.00 0.00 51 1020.3
20240228130558 44 359 4.0 8.0 0.00 0.00 0.00 51 1020.4
20240228130057 44 315 6.0 6.0 0.00 0.00 0.00 52 1020.4
20240228125555 44 203 1.0 15.0 0.00 0.00 0.00 51 1020.3
20240228125055 44 259 2.0 5.0 0.00 0.00 0.00 52 1020.2